"Pseudo-MPEC" for ST25E26

Created 2025 Jun 17 14:35:05 UT using Find_Orb

Click here for an explanation of pseudo-MPECs

 
 Astrometry: 
     ST25E26* C2025 05 31.23981914 13 28.310+15 03 31.37   ~5VEl 19.1 GVNEOCPU68
     ST25E26  C2025 05 31.24359914 13 28.311+15 03 23.72   ~5VEl 19.1 GVNEOCPU68
     ST25E26  C2025 05 31.26017414 13 28.497+15 03 03.16   ~5VEl 18.9 GVNEOCPU68
     ST25E26  C2025 05 31.26395514 13 28.528+15 02 56.37   ~5VEl 18.9 GVNEOCPU68

Station data:
(U68) JPL SynTrack Robotic Telescope, Auberry  (N37.070387 W119.412990)
   US/California.  Observers N. Saini, C. Zhai, R. Trahan, M. Zhan, M. Shao.
   0.28-m f/2.2 Schmidt + CCD.

Orbital elements:  ST25E26
   Perihelion 2025 Feb 1.82736 +/- 56.1 TT = 19:51:23 (JD 2460708.32736)
Epoch 2025 May 31.0 TT = JDT 2460826.5   Earth MOID: 0.0482   Ma: 0.0432
M  85.85759272 +/- 46               (J2000 ecliptic)             AutoNEOCP
n   0.72654373 +/- 0.414            Peri.  307.30493 +/- 100
a   1.22544796 +/- 0.466            Node   168.49533 +/- 50
e   0.3318843 +/- 0.183             Incl.    8.83777 +/- 4.8
P   1.357/495.487d         H 19.05  G  0.15   U 12.2  SR
q 0.81874099 +/- 0.392    Q 1.63215492 +/- 1.89
From 4 observations 2025 May 31 (34.8 min); mean residual 0".74
Residuals in arcseconds: 
250531 U68  .24+  1.0+    250531 U68  .07+  .96+    
250531 U68  .28-  1.4-    250531 U68  .02-  .59-    

Ephemerides (geocentric):
Date (UTC) HH   RA             Dec           delta  r     elong  mag " sig PA
---- --------  ------------   ------------  ------ ------ -----  --- --------
2025 06 17 15  14 23 06.438   +08 44 35.79  .57323 1.4024 121.3 20.1  25d  78
2025 06 17 16  14 23 08.414   +08 43 44.27  .57361 1.4025 121.3 20.1  25d  78
2025 06 17 17  14 23 10.393   +08 42 52.77  .57399 1.4027 121.3 20.1  25d  78
2025 06 17 18  14 23 12.374   +08 42 01.27  .57436 1.4029 121.3 20.1  25d  78
2025 06 17 19  14 23 14.358   +08 41 09.80  .57474 1.4030 121.3 20.1  25d  78
2025 06 17 20  14 23 16.344   +08 40 18.33  .57512 1.4032 121.2 20.1  25d  78
2025 06 17 21  14 23 18.333   +08 39 26.88  .57550 1.4034 121.2 20.1  25d  78
2025 06 17 22  14 23 20.324   +08 38 35.45  .57587 1.4035 121.2 20.1  25d  78
2025 06 17 23  14 23 22.318   +08 37 44.02  .57625 1.4037 121.2 20.1  25d  78
2025 06 18 00  14 23 24.314   +08 36 52.61  .57663 1.4039 121.2 20.1  25d  78
2025 06 18 01  14 23 26.313   +08 36 01.22  .57701 1.4040 121.1 20.1  25d  78
2025 06 18 02  14 23 28.314   +08 35 09.84  .57739 1.4042 121.1 20.1  25d  78
2025 06 18 03  14 23 30.317   +08 34 18.47  .57776 1.4044 121.1 20.1  25d  78
2025 06 18 04  14 23 32.323   +08 33 27.11  .57814 1.4045 121.1 20.1  25d  78
2025 06 18 05  14 23 34.332   +08 32 35.77  .57852 1.4047 121.1 20.1  25d  78
2025 06 18 06  14 23 36.343   +08 31 44.45  .57890 1.4049 121.0 20.1  25d  78
2025 06 18 07  14 23 38.356   +08 30 53.13  .57928 1.4051 121.0 20.1  25d  78
2025 06 18 08  14 23 40.372   +08 30 01.83  .57966 1.4052 121.0 20.1  25d  78
2025 06 18 09  14 23 42.390   +08 29 10.54  .58003 1.4054 121.0 20.1  25d  78
2025 06 18 10  14 23 44.411   +08 28 19.27  .58041 1.4056 120.9 20.1  25d  78
2025 06 18 11  14 23 46.434   +08 27 28.01  .58079 1.4057 120.9 20.1  25d  78
2025 06 18 12  14 23 48.459   +08 26 36.77  .58117 1.4059 120.9 20.1  25d  78
2025 06 18 13  14 23 50.487   +08 25 45.53  .58155 1.4061 120.9 20.2  25d  78
2025 06 18 14  14 23 52.518   +08 24 54.32  .58193 1.4062 120.9 20.2  25d  78
2025 06 18 15  14 23 54.551   +08 24 03.11  .58231 1.4064 120.8 20.2  25d  78
2025 06 18 16  14 23 56.586   +08 23 11.92  .58269 1.4066 120.8 20.2  25d  78
2025 06 18 17  14 23 58.624   +08 22 20.74  .58307 1.4067 120.8 20.2  25d  78
2025 06 18 18  14 24 00.664   +08 21 29.58  .58345 1.4069 120.8 20.2  25d  78
2025 06 18 19  14 24 02.707   +08 20 38.42  .58383 1.4071 120.8 20.2  25d  78
2025 06 18 20  14 24 04.752   +08 19 47.29  .58421 1.4072 120.7 20.2  25d  78
2025 06 18 21  14 24 06.799   +08 18 56.16  .58459 1.4074 120.7 20.2  25d  78
2025 06 18 22  14 24 08.849   +08 18 05.05  .58497 1.4076 120.7 20.2  26d  78
2025 06 18 23  14 24 10.901   +08 17 13.96  .58535 1.4077 120.7 20.2  26d  78
2025 06 19 00  14 24 12.956   +08 16 22.87  .58573 1.4079 120.6 20.2  26d  78
2025 06 19 01  14 24 15.013   +08 15 31.80  .58611 1.4081 120.6 20.2  26d  78
2025 06 19 02  14 24 17.073   +08 14 40.75  .58649 1.4082 120.6 20.2  26d  78
2025 06 19 03  14 24 19.135   +08 13 49.70  .58687 1.4084 120.6 20.2  26d  78
2025 06 19 04  14 24 21.199   +08 12 58.67  .58725 1.4086 120.6 20.2  26d  78
2025 06 19 05  14 24 23.266   +08 12 07.66  .58763 1.4087 120.5 20.2  26d  78
2025 06 19 06  14 24 25.335   +08 11 16.65  .58801 1.4089 120.5 20.2  26d  77
2025 06 19 07  14 24 27.407   +08 10 25.67  .58839 1.4091 120.5 20.2  26d  77
2025 06 19 08  14 24 29.481   +08 09 34.69  .58877 1.4092 120.5 20.2  26d  77
2025 06 19 09  14 24 31.558   +08 08 43.73  .58915 1.4094 120.5 20.2  26d  77
2025 06 19 10  14 24 33.637   +08 07 52.78  .58953 1.4096 120.4 20.2  26d  77
2025 06 19 11  14 24 35.718   +08 07 01.84  .58992 1.4097 120.4 20.2  26d  77
2025 06 19 12  14 24 37.802   +08 06 10.92  .59030 1.4099 120.4 20.2  26d  77
2025 06 19 13  14 24 39.888   +08 05 20.01  .59068 1.4101 120.4 20.2  26d  77
2025 06 19 14  14 24 41.976   +08 04 29.12  .59106 1.4102 120.4 20.2  26d  77